Find Kuiper-00163

NORAD ID: 65777 Int'l Des: 2025-217 Owner: KUIP Country: US Constellation: kuiper operational
LEOCIRCULAR

Live-Position

3D-Globus wird geladen...

Über Kuiper-00163

Beschreibung wird geladen...

Nächste Überflüge

Passes for default location (London). Set your location on the main map for personalized predictions.

Höhenverlauf

Loading altitude history...

Zweizeiliger Elementsatz

1 65777U 25217R 26106.91668981 .01075748 00000-0 75031-2 0 9992
2 65777 51.8994 221.4721 0002620 357.2971 298.5102 15.71068785 4462
Epoch: 16. Apr. 2026 • Age: 11 hours

Aktueller Status

Höhe 359.4 km
Geschwindigkeit 7.70 km/s
Subsatellitenpunkt 52.04°N, 38.09°W
Startdatum 25. Sept. 2025
Alter 0.5 years
Typ internet

Technische Details

Klassifizierung Payload
Masse 490.00 kg
Trockenmasse 490.00 kg
Gesamtmasse 490.00 kg
Länge 1.80 m
Durchmesser 0.70 m
Spannweite 5.00 m
Form Box + 2 pan
Hersteller KUIP
Bus-Typ Kuiper
Phasenstatus In Orbit
Besitzer/Staat KUIP/US

Most Searched